Weather in Taraclia

Moldova     45°54′11″N   28°40′07″E
temp.,
°C
wind,
m/s
gust,
m/s
humid.,
%
clouds,
%
prec.,
mm/h
press.,
hPa
HPBL,
m
21 january, fri
fri2123:00+2wsw61462100 0.0 1012351
02:00+2w71466100 0.0 1012340
05:00−1nnw61277100 0.0 1014569
08:00−2nw386799 0.0 1016252
11:00+2nw47395 0.0 10171096
14:00+3wnw56260 0.0 10161588
17:00+1w333545 0.0 101540
20:00−1wsw485051 0.0 1016152
22 january, sat
sat2223:00−1wnw34555 0.0 101698
02:00−3nw22516 0.0 101612
05:00−3w37525 0.0 1016138
08:00−4nw235346 0.0 101658
11:000nw463968 0.0 1017981
14:00+1nw563592 0.0 10161728
17:00−2wnw334312 0.0 101621
20:00−3nw23485 0.0 101828
23 january, sun
sun2323:00−3nw5116956 0.0 1019513
02:00−4nnw510835 0.0 1019497
05:00−5nw49825 0.0 1019366
08:00−4nw3890100 0.0 1019347
11:00−2nnw5672100 0.1 1019860
14:00−1n5661100 0.3 10191167
17:00−2n477295 0.3 1021315
20:00−3n497696 0.3 1023435
24 january, mon
mon2423:00−4n488072 0.0 1024317
02:00−5n510815 0.0 1025427
05:00−6nnw61188100 0.0 1026535
08:00−7nnw7128594 0.0 1028557
11:00−4nnw91167100 0.0 1028751
14:00−4nnw91172100 0.1 1028858
17:00−5nnw81375100 0.1 1028862
20:00−5nnw81386100 0.3 1029864
25 january, tue
tue2523:00−6nnw71289100 0.2 1028734
02:00−6nnw61188100 0.4 1028636
05:00−6nw61087100 0.2 1027550
08:00−6nw51093100 0.9 1027517
11:00−5nnw5890100 1.3 1026530
14:00−5nw5791100 2.4 1024528
17:00−5nw3695100 1.2 1023380
20:00−6sse019598 1.6 102229